Home   Weather   Flint   Past weeks

Flag for USA Past Weather in Flint, Michigan, USA — Yesterday and Last 2 Weeks

Now
54 °F

Sunny.


Feels Like: 52 °F
Forecast: 35 / 54 °F
Wind: 8 mph from West

Location: Bishop International Airport

Current Time: Feb 19, 2017 at 1:48:39 pm

Latest Report: Feb 19, 2017 at 12:53 pm


Visibility: 10 mi

Pressure: 30.03 "Hg

Humidity: 49%

Dew Point: 35 °F

Location of FlintLocation

Past Weather in Flint — Graph

°F

Flint Temperature Yesterday

Maximum temperature yesterday: 65 °F (at 2:53 pm)
Minimum temperature yesterday: 42 °F (at 11:53 pm)
Average temperature yesterday: 51 °F

High & Low Weather Summary for the Past Weeks

 TemperatureHumidityPressure
High65 °F (Feb 18, 2:53 pm)100% (Feb 7, 11:53 am)30.36 "Hg (Feb 7, 11:53 am)
Low12 °F (Feb 6, 1:53 am)35% (Feb 18, 3:53 pm)29.24 "Hg (Feb 7, 4:21 pm)
Average32 °F70%29.87 "Hg
* Reported Feb 4 11:53 am — Feb 19 11:53 am, Flint, Weather by CustomWeather, © 2017

Note: Actual official high and low records may vary slightly from our data, if they occured in-between our weather recording intervals... More about our weather records

Advertising

Flint Weather History for the Previous 24 Hours

Scroll right to see more
 ConditionsComfort  
Time TempWeatherWind HumidityBarometerVisibility
11:53 am
Sun, Feb 19
53 °FSunny.6 mph51%30.02 "Hg10 mi
10:53 am50 °FSunny.10 mph54%30.02 "Hg10 mi
9:53 am46 °FSunny.8 mph66%30.00 "Hg10 mi
8:53 am41 °FSunny.5 mph76%29.97 "Hg10 mi
7:53 am37 °FSunny.3 mph82%29.96 "Hg10 mi
6:53 am37 °FClear.3 mph82%29.92 "Hg10 mi
5:53 am39 °FClear.6 mph79%29.89 "Hg10 mi
4:53 am39 °FClear.6 mph82%29.87 "Hg10 mi
3:53 am38 °FClear.7 mph83%29.85 "Hg10 mi
2:53 am37 °FClear.9 mph86%29.83 "Hg10 mi
1:53 am38 °FClear.7 mph83%29.82 "Hg10 mi
12:53 am40 °FClear.7 mph80%29.81 "Hg10 mi
11:53 pm
Sat, Feb 18
42 °FClear.5 mph76%29.80 "Hg10 mi
10:53 pm44 °FClear.8 mph73%29.77 "Hg10 mi
9:53 pm46 °FClear.8 mph68%29.77 "Hg10 mi
8:53 pm48 °FClear.7 mph63%29.75 "Hg10 mi
7:53 pm51 °FClear.7 mph59%29.73 "Hg10 mi
6:53 pm48 °FClear.8 mph63%29.72 "Hg10 mi
5:53 pm56 °FSunny.13 mph51%29.69 "Hg10 mi
4:53 pm61 °FSunny.12 mph44%29.67 "Hg10 mi
3:53 pm64 °FSunny.14 mph35%29.65 "Hg10 mi
2:53 pm65 °FSunny.14 mph36%29.64 "Hg10 mi
1:53 pm64 °FSunny.13 mph37%29.63 "Hg10 mi
Weather by CustomWeather, © 2017

See weather overviewHow to use our weather pages